Location: Newark
(25.0000°N, 73.5000°E)
Time: 23:14:06
(UTC+00:00)

Courier 1B - Visible Passes

Search period start: 30 July 2021 00:00
Search period end: 09 August 2021 00:00
Orbit: 962 x 1209 km, 28.3° (Epoch: 30 July)

Date Brightness Start Highest point End Pass type
(mag) Time Alt. Az. Time Alt. Az. Time Alt. Az.
30 Jul 7.9 15:03:58 10° W 15:11:50 82° NNW 15:18:30 14° ENE visible
30 Jul 8.2 16:58:56 10° W 17:05:24 60° NW 17:05:24 60° NW visible
31 Jul 8.0 14:09:53 10° WSW 14:17:47 89° SSE 14:25:29 10° ENE visible
31 Jul 8.0 16:04:45 10° W 16:12:30 69° N 16:14:53 46° ENE visible
31 Jul 9.7 17:59:35 10° WNW 18:01:46 21° WNW 18:01:46 21° WNW visible
01 Aug 8.1 15:10:34 10° W 15:18:24 71° N 15:24:18 18° ENE visible
01 Aug 8.4 17:05:28 10° WNW 17:11:11 52° WNW 17:11:11 52° WNW visible
02 Aug 8.1 14:16:24 10° W 14:24:18 76° N 14:32:01 10° ENE visible
02 Aug 7.9 16:11:20 10° WNW 16:19:08 71° N 16:20:34 58° ENE visible
02 Aug 9.9 18:06:04 10° WNW 18:07:26 16° WNW 18:07:26 16° WNW visible
03 Aug 8.1 15:17:10 10° W 15:25:02 69° N 15:29:54 24° E visible
03 Aug 8.7 17:11:57 10° WNW 17:16:47 42° WNW 17:16:47 42° WNW visible
04 Aug 8.2 14:23:02 10° W 14:30:53 69° N 14:38:37 10° E visible
04 Aug 7.7 16:17:50 10° WNW 16:25:42 83° NNE 16:26:07 79° ENE visible
04 Aug 10.2 18:12:39 10° W 18:12:59 11° W 18:12:59 11° W visible
05 Aug 8.0 15:23:44 10° WNW 15:31:37 76° N 15:35:27 33° E visible
05 Aug 9.1 17:18:26 10° W 17:22:19 32° W 17:22:19 32° W visible
06 Aug 8.2 14:29:38 10° W 14:37:30 71° N 14:44:46 12° E visible
06 Aug 7.8 16:24:18 10° WNW 16:31:38 74° WSW 16:31:38 74° WSW visible
07 Aug 7.8 15:30:13 10° WNW 15:38:08 89° SSW 15:40:58 44° ESE visible
07 Aug 9.6 17:25:08 10° W 17:27:51 22° W 17:27:51 22° W visible
08 Aug 8.0 14:36:10 10° WNW 14:44:04 81° NNE 14:50:20 17° E visible
08 Aug 8.4 16:30:52 10° W 16:37:12 49° SW 16:37:12 49° SW visible
